SCOUT G-1 DEB, 18426

Orbit data source: Space-Track

SCOUT G-1 DEB, 18426 is space debris in LEO originally from a launch on Fri, 14 Nov 1986 UTC launched from the Air Force Western Test Range (AFWTR). Debris objects in space refer to the collection of defunct objects orbiting the Earth. Examples of debris include non-operational satellites, rocket bodies, and fragments generated from explosions, collisions, or faulty payload assembly.

Loading next visibility...
Identifier
18426, 1986-088C
Orbit
LEO
Country
Flag of USUS
Related business
Manufacturer
Unknown
Mission
Spacecraft
Bus & Motor
Unknown
Mass
2 kg wet, 2 kg dry
Launch date (UTC)
1986-11-14 (40 years ago)
Launch vehicle
Unknown
Launch site
Air Force Western Test Range (AFWTR)
Object type
Payload
Rocket body
Debris
Shape & HBR
DISK + CABLE, 0.1 m
Radar Cross Section
Medium (>0.1 m² and <1 m²)

Expand to show TLE details & history
Last TLE update: 1 day ago

TLE from 1 day ago
0 SCOUT G-1 DEB
1 18426U 86088C   26235.02216553  .00000164  00000-0  15994-3 0  9995
2 18426  89.1193 246.6085 0066945 314.5052  73.0158 13.73909050990127
Epoch: 2026-08-23T00:31Z
TLE epoch observation values (Epoch: 2026-08-23T00:31:55.101Z)
Latitude
28.29397°
Longitude
-92.22361°
Altitude
975.039 km
Speed
7.374 km/s
True Right ascension
16h 28m 19s
True Declination
28° 09' 18"
Sunlit
Object was in daylight at epoch
Visualization orbit readout
Latitude
Unknown
Longitude
Unknown
Altitude
Unknown
Speed
Unknown
Apparent Right ascension
Unknown
Apparent Declination
Unknown
Sunlit
N/A
Visualization observer readout
Local Sidereal Time
20:52:18
Azimuth
Unknown
Elevation
Unknown
Doppler factor
Unknown
Orbital elements
Apogee altitude
1,031.864 km
Perigee altitude
933.311 km
Semi-major axis
7,360.724 km
Eccentricity
0.00669
Inclination
89.1193°
RAAN
246.6085°
Arg. of periapsis
314.5052°
True anomaly
73.75125°
Mean anomaly
73.0158°
Eccentric anomaly
73.38335°
Mean motion
3.43686 °/min
Orbital period
104.75 mins
BSTAR
0.00015994
Loading maneuver chart data...
Computing Atmospheric mass density...
Loading historical data...
Loading historical data...
Loading historical data...
Loading historical data...
Loading historical data...
Loading historical data...
Loading historical data...
Other satellites on launch #88 in the year 1986 (1986-11-14 UTC)

Documentation

Showing up to 5 results
|